Weather History for Driggs, ID

Change the Weather History Date:

Thursday, March 21, 2013

  Actual Average (KRXE) Record (KRXE)
Temperature  
Mean Temperature 28 °F 37 °F  
Max Temperature 36 °F 47 °F 65 °F (2004)
Min Temperature 19 °F 26 °F 15 °F (2000)
Degree Days  
Heating Degree Days 38 28  
Month to date heating degree days 691  
Since 1 July heating degree days 6664  
Cooling Degree Days 0 0  
Month to date cooling degree days 0  
Year to date cooling degree days 0  
Moisture  
Dew Point 23 °F    
Average Humidity 84    
Maximum Humidity 100    
Minimum Humidity 63    
Precipitation  
Precipitation 0.14 in 0.03 in 0.40 in (1981)
Month to date precipitation 0.62  
Year to date precipitation 2.19  
Sea Level Pressure  
Sea Level Pressure 29.79 in    
Wind  
Wind Speed 12 mph (SSW)    
Max Wind Speed 21 mph    
Max Gust Speed 28 mph    
Visibility 3 miles    
Events Fog , Snow    
T = Trace of Precipitation, MM = Missing Value Source: NWS Daily Summary

Daily Weather History Graph

Daily Weather History Graph

Search for Another Location

Airport:

Trip Planner

Search our weather history database for the weather conditions in past years. The results will help you decide how hot, cold, wet, or windy it might be!

Date:

Astronomy

Mar. 21, 2013 Rise Set
Actual Time 7:25 AM MDT 7:38 PM MDT
Civil Twilight 6:56 AM MDT 8:07 PM MDT
Nautical Twilight 6:22 AM MDT 8:40 PM MDT
Astronomical Twilight 5:48 AM MDT 9:15 PM MDT
Moon 2:02 PM MDT (3/21) 3:58 AM MDT (3/21)
Length of Visible Light 13h 10m
Length of Day
12h 13m
Waxing Gibbous, 69% of the Moon is Illuminated
Mar 21
Waxing Gibbous
Mar 27
Full
Apr 2
Last Quarter
Apr 10
New
Apr 18
First Quarter

Hourly Weather History & Observations

Time (MDT) Temp. Windchill Dew Point Humidity Pressure Visibility Wind Dir Wind Speed Gust Speed Precip Events Conditions
12:06 AM 35.6 °F 27.1 °F 32.0 °F 87% 29.71 in 3.0 mi SW 12.7 mph - 0.02 in Snow Light Snow
12:19 AM 35.6 °F 24.5 °F 32.0 °F 87% 29.71 in 2.5 mi SSW 20.7 mph 26.5 mph 0.03 in Snow Light Snow
12:24 AM 33.8 °F 22.8 °F 32.0 °F 93% 29.71 in 1.2 mi South 18.4 mph 26.5 mph 0.03 in Snow Light Snow
12:35 AM 33.8 °F 23.2 °F 32.0 °F 93% 29.71 in 1.5 mi South 17.3 mph - 0.03 in Snow Light Snow
12:43 AM 33.8 °F 22.8 °F 32.0 °F 93% 29.70 in 3.0 mi SSE 18.4 mph - 0.04 in Snow Light Snow
12:56 AM 34.0 °F 24.6 °F 32.9 °F 96% 29.64 in 10.0 mi SSE 13.8 mph - 0.04 in Snow Light Snow
1:12 AM 35.6 °F 26.6 °F 33.8 °F 93% 29.69 in 10.0 mi SSE 13.8 mph - 0.01 in Snow Light Snow
1:56 AM 36.0 °F 28.5 °F 32.0 °F 86% 29.62 in 10.0 mi SSE 10.4 mph - 0.02 in   Overcast
2:41 AM 33.8 °F 25.3 °F 32.0 °F 93% 29.68 in 6.0 mi SSE 11.5 mph - 0.00 in   Overcast
2:56 AM 34.0 °F 26.6 °F 32.0 °F 92% 29.60 in 10.0 mi SE 9.2 mph - 0.00 in Snow Light Snow
3:14 AM 33.8 °F 24.3 °F 32.0 °F 93% 29.65 in 10.0 mi SSE 13.8 mph - 0.01 in Snow Light Snow
3:26 AM 35.6 °F 26.6 °F 30.2 °F 81% 29.65 in 5.0 mi SSE 13.8 mph - 0.01 in Snow Light Snow
3:48 AM 33.8 °F 23.9 °F 30.2 °F 87% 29.65 in 2.0 mi South 15.0 mph - 0.01 in Snow Light Snow
3:56 AM 32.9 °F 22.8 °F 32.0 °F 96% 29.59 in 4.0 mi South 15.0 mph - 0.01 in Snow Light Snow
4:07 AM 33.8 °F 24.3 °F 32.0 °F 93% 29.65 in 2.0 mi SSW 13.8 mph - 0.00 in Snow Light Snow
4:15 AM 33.8 °F 25.8 °F 32.0 °F 93% 29.65 in 1.2 mi SSW 10.4 mph - 0.00 in Snow Light Snow
4:19 AM 33.8 °F 24.8 °F 32.0 °F 93% 29.66 in 0.8 mi WSW 12.7 mph - 0.00 in Snow Light Snow
4:26 AM 32.0 °F 24.8 °F 30.2 °F 93% 29.66 in 1.2 mi West 8.1 mph - 0.00 in Snow Light Snow
4:34 AM 32.0 °F 22.5 °F 30.2 °F 93% 29.67 in 1.5 mi NW 12.7 mph - 0.00 in Snow Light Snow
4:36 AM 30.2 °F 20.2 °F 30.2 °F 100% 29.68 in 1.0 mi NW 12.7 mph - 0.00 in Snow Light Snow
4:39 AM 30.2 °F 20.2 °F 30.2 °F 100% 29.68 in 0.5 mi NW 12.7 mph - 0.00 in Fog , Snow Snow
4:56 AM 30.0 °F 23.2 °F 30.0 °F 100% 29.65 in 0.5 mi NW 6.9 mph - 0.00 in Fog , Snow Snow
5:04 AM 30.2 °F 23.4 °F 30.2 °F 100% 29.70 in 1.0 mi NW 6.9 mph - 0.00 in Snow Light Snow
5:07 AM 30.2 °F 24.3 °F 30.2 °F 100% 29.70 in 1.5 mi NW 5.8 mph - 0.00 in Snow Light Snow
5:15 AM 30.2 °F 22.6 °F 30.2 °F 100% 29.70 in 1.0 mi NW 8.1 mph - 0.00 in Snow Light Snow
5:29 AM 30.2 °F 24.3 °F 28.4 °F 93% 29.71 in 1.5 mi NW 5.8 mph - 0.00 in Snow Light Snow
5:42 AM 30.2 °F 26.7 °F 28.4 °F 93% 29.71 in 2.5 mi North 3.5 mph - 0.00 in Snow Light Snow
5:56 AM 30.0 °F - 29.1 °F 96% 29.67 in 2.5 mi Calm Calm - 0.00 in Snow Light Snow
5:58 AM 30.2 °F - 28.4 °F 93% 29.71 in 3.0 mi Calm Calm - 0.00 in Snow Light Snow
6:08 AM 30.2 °F 23.4 °F 28.4 °F 93% 29.72 in 3.0 mi South 6.9 mph - 0.00 in Snow Light Snow
6:34 AM 28.4 °F 18.0 °F 24.8 °F 86% 29.72 in 10.0 mi South 12.7 mph - 0.00 in   Overcast
6:56 AM 28.0 °F 20.0 °F 23.0 °F 81% 29.71 in 10.0 mi SSW 8.1 mph - 0.00 in   Overcast
7:10 AM 26.6 °F 17.5 °F 24.8 °F 93% 29.74 in 3.0 mi SSW 9.2 mph - 0.00 in Snow Light Snow
7:17 AM 26.6 °F 18.2 °F 24.8 °F 93% 29.74 in 2.5 mi SSW 8.1 mph - 0.00 in Snow Light Snow
7:25 AM 26.6 °F 20.0 °F 23.0 °F 86% 29.74 in 9.0 mi SSW 5.8 mph - 0.00 in Snow Light Snow
7:35 AM 26.6 °F 21.2 °F 21.2 °F 80% 29.74 in 10.0 mi SW 4.6 mph - 0.00 in Snow Light Snow
7:43 AM 26.6 °F 22.6 °F 21.2 °F 80% 29.74 in 10.0 mi WSW 3.5 mph - 0.00 in   Overcast
7:56 AM 27.1 °F 18.9 °F 22.1 °F 81% 29.71 in 3.0 mi West 8.1 mph - 0.00 in Snow Light Snow
7:59 AM 26.6 °F 18.2 °F 21.2 °F 80% 29.74 in 1.8 mi West 8.1 mph - 0.00 in Snow Light Snow
8:05 AM 26.6 °F 19.1 °F 21.2 °F 80% 29.74 in 1.2 mi SW 6.9 mph - 0.00 in Snow Light Snow
8:11 AM 26.6 °F 19.1 °F 21.2 °F 80% 29.74 in 1.8 mi SSW 6.9 mph - 0.00 in Snow Light Snow
8:13 AM 26.6 °F 17.5 °F 21.2 °F 80% 29.74 in 2.5 mi SSW 9.2 mph - 0.00 in Snow Light Snow
8:21 AM 26.6 °F 16.8 °F 21.2 °F 80% 29.74 in 1.8 mi SSW 10.4 mph - 0.00 in Snow Light Snow
8:35 AM 26.6 °F 17.5 °F 23.0 °F 86% 29.74 in 2.5 mi SSW 9.2 mph - 0.00 in Snow Light Snow
8:44 AM 26.6 °F 18.2 °F 23.0 °F 86% 29.75 in 4.0 mi West 8.1 mph - 0.00 in Snow Light Snow
8:56 AM 24.1 °F 12.5 °F 22.1 °F 92% 29.74 in 0.2 mi NW 12.7 mph - 0.00 in Fog , Snow Snow
9:27 AM 24.8 °F 17.9 °F 21.2 °F 86% 29.78 in 0.5 mi NW 5.8 mph - 0.00 in Fog , Snow Light Snow
9:37 AM 24.8 °F 17.9 °F 23.0 °F 93% 29.79 in 1.0 mi NW 5.8 mph - 0.00 in Snow Light Snow
9:40 AM 24.8 °F 17.9 °F 23.0 °F 93% 29.79 in 1.8 mi NW 5.8 mph - 0.00 in Snow Light Snow
9:43 AM 24.8 °F 17.9 °F 23.0 °F 93% 29.79 in 3.0 mi NW 5.8 mph - 0.00 in Snow Light Snow
9:56 AM 24.1 °F 15.2 °F 22.1 °F 92% 29.78 in 1.8 mi WNW 8.1 mph - 0.00 in Snow Light Snow
10:05 AM 24.8 °F 14.6 °F 21.2 °F 86% 29.80 in 2.0 mi WNW 10.4 mph - 0.00 in Snow Light Snow
10:08 AM 24.8 °F 16.1 °F 21.2 °F 86% 29.81 in 3.0 mi WNW 8.1 mph - 0.00 in Snow Light Snow
10:15 AM 24.8 °F 16.9 °F 21.2 °F 86% 29.81 in 3.0 mi West 6.9 mph - 0.00 in Snow Light Snow
10:19 AM 24.8 °F 17.9 °F 21.2 °F 86% 29.81 in 3.0 mi West 5.8 mph - 0.00 in Snow Light Snow
10:56 AM 24.1 °F - 21.0 °F 88% 29.81 in 10.0 mi Calm Calm - 0.00 in   Mostly Cloudy
11:56 AM 28.0 °F 20.8 °F 17.1 °F 63% 29.81 in 10.0 mi Variable 6.9 mph - N/A   Partly Cloudy
12:56 PM 27.1 °F 19.7 °F 16.2 °F 63% 29.82 in 6.0 mi NW 6.9 mph - 0.03 in   Mostly Cloudy
1:07 PM 24.8 °F 14.6 °F 17.6 °F 74% 29.84 in 2.5 mi NW 10.4 mph - 0.00 in Snow Light Snow
1:10 PM 24.8 °F 14.6 °F 19.4 °F 80% 29.84 in 1.8 mi NW 10.4 mph - 0.00 in Snow Light Snow
1:12 PM 24.8 °F 16.1 °F 19.4 °F 80% 29.85 in 1.0 mi NW 8.1 mph - 0.00 in Snow Light Snow
1:19 PM 24.8 °F 20.5 °F 19.4 °F 80% 29.84 in 0.8 mi North 3.5 mph - 0.01 in Snow Light Snow
1:23 PM 26.6 °F - 19.4 °F 74% 29.84 in 1.2 mi Calm Calm - 0.01 in Snow Light Snow
1:26 PM 26.6 °F - 19.4 °F 74% 29.84 in 2.0 mi Calm Calm - 0.01 in Snow Light Snow
1:40 PM 26.6 °F 22.6 °F 21.2 °F 80% 29.84 in 1.2 mi ENE 3.5 mph - 0.01 in Snow Light Snow
1:44 PM 26.6 °F 19.1 °F 19.4 °F 74% 29.84 in 0.8 mi East 6.9 mph - 0.02 in Snow Light Snow
1:56 PM 27.1 °F 18.9 °F 20.1 °F 75% 29.81 in 1.2 mi East 8.1 mph - 0.02 in Snow Light Snow
1:58 PM 26.6 °F 18.2 °F 19.4 °F 74% 29.84 in 2.0 mi ENE 8.1 mph - 0.00 in Snow Light Snow
2:06 PM 26.6 °F 19.1 °F 19.4 °F 74% 29.84 in 3.0 mi East 6.9 mph - 0.00 in Snow Light Snow
2:13 PM 26.6 °F 19.1 °F 19.4 °F 74% 29.84 in 1.8 mi ENE 6.9 mph - 0.00 in Snow Light Snow
2:17 PM 26.6 °F 20.0 °F 19.4 °F 74% 29.84 in 1.0 mi ENE 5.8 mph - 0.00 in Snow Light Snow
2:25 PM 26.6 °F 19.1 °F 21.2 °F 80% 29.83 in 0.8 mi East 6.9 mph - 0.00 in Snow Light Snow
2:28 PM 26.6 °F 20.0 °F 19.4 °F 74% 29.83 in 1.2 mi East 5.8 mph - 0.00 in Snow Light Snow
2:30 PM 26.6 °F 20.0 °F 19.4 °F 74% 29.83 in 2.5 mi East 5.8 mph - 0.00 in Snow Light Snow
2:34 PM 26.6 °F 22.6 °F 21.2 °F 80% 29.84 in 6.0 mi SE 3.5 mph - 0.00 in Snow Light Snow
2:46 PM 28.4 °F 21.2 °F 21.2 °F 74% 29.83 in 2.5 mi SE 6.9 mph - 0.01 in Snow Light Snow
2:56 PM 27.1 °F 18.9 °F 21.0 °F 78% 29.81 in 3.0 mi SE 8.1 mph - 0.02 in Snow Light Snow
3:46 PM 26.6 °F 14.3 °F 21.2 °F 80% 29.83 in 1.8 mi South 16.1 mph - 0.00 in   Mostly Cloudy
3:49 PM 26.6 °F 14.3 °F 21.2 °F 80% 29.84 in 0.8 mi SSW 16.1 mph - 0.00 in   Mostly Cloudy
3:56 PM 25.2 °F 14.4 °F 22.1 °F 88% 29.83 in 0.2 mi SSW 11.5 mph - 0.00 in Fog Light Freezing Fog
4:10 PM 26.6 °F 15.7 °F 23.0 °F 86% 29.84 in 1.2 mi SSW 12.7 mph - 0.00 in Snow Light Snow
4:14 PM 26.6 °F 15.2 °F 23.0 °F 86% 29.84 in 2.0 mi SSW 13.8 mph - 0.00 in Snow Light Snow
4:30 PM 26.6 °F 16.2 °F 21.2 °F 80% 29.85 in 1.5 mi SSW 11.5 mph - 0.00 in   Overcast
4:32 PM 26.6 °F 16.8 °F 23.0 °F 86% 29.85 in 1.0 mi SSW 10.4 mph - 0.00 in Snow Light Snow
4:37 PM 26.6 °F 14.3 °F 23.0 °F 86% 29.85 in 0.8 mi SSW 16.1 mph - 0.00 in Snow Light Snow
4:44 PM 26.6 °F 15.7 °F 23.0 °F 86% 29.85 in 0.5 mi South 12.7 mph - 0.00 in Fog , Snow Light Snow
4:56 PM 25.2 °F 14.4 °F 22.1 °F 88% 29.86 in 1.0 mi South 11.5 mph - 0.00 in   Overcast
5:11 PM 24.8 °F 11.9 °F 21.2 °F 86% 29.85 in 0.8 mi South 16.1 mph - 0.00 in Snow Light Snow
5:19 PM 24.8 °F 11.5 °F 21.2 °F 86% 29.86 in 1.0 mi South 17.3 mph - 0.00 in Snow Light Snow
5:27 PM 24.8 °F 11.5 °F 21.2 °F 86% 29.86 in 0.5 mi SSW 17.3 mph - 0.00 in Fog Light Freezing Fog
5:38 PM 24.8 °F 11.9 °F 21.2 °F 86% 29.86 in 0.8 mi South 16.1 mph - 0.00 in Snow Light Snow
5:45 PM 24.8 °F 11.9 °F 21.2 °F 86% 29.86 in 0.8 mi South 16.1 mph - 0.00 in Snow Light Snow
5:56 PM 24.1 °F 11.0 °F 21.0 °F 88% 29.88 in 0.8 mi South 16.1 mph - 0.00 in Snow Light Snow
6:02 PM 24.8 °F 11.9 °F 19.4 °F 80% 29.86 in 1.0 mi South 16.1 mph - 0.00 in Snow Light Snow
6:05 PM 24.8 °F 11.5 °F 19.4 °F 80% 29.86 in 1.5 mi South 17.3 mph - 0.00 in Snow Light Snow
6:14 PM 24.8 °F 12.4 °F 19.4 °F 80% 29.87 in 2.0 mi South 15.0 mph - 0.00 in Snow Light Snow
6:21 PM 24.8 °F 11.1 °F 19.4 °F 80% 29.87 in 1.8 mi SSW 18.4 mph - 0.00 in Snow Light Snow
6:28 PM 24.8 °F 11.5 °F 17.6 °F 74% 29.87 in 1.0 mi SSW 17.3 mph - 0.00 in   Haze
6:38 PM 24.8 °F 12.4 °F 19.4 °F 80% 29.87 in 1.2 mi South 15.0 mph - 0.00 in   Haze
6:42 PM 24.8 °F 11.9 °F 17.6 °F 74% 29.87 in 1.5 mi South 16.1 mph - 0.00 in   Haze
6:56 PM 24.1 °F 9.8 °F 18.1 °F 78% 29.88 in 2.5 mi SSW 19.6 mph - 0.00 in   Haze
7:22 PM 24.8 °F 10.7 °F 17.6 °F 74% 29.86 in 5.0 mi South 19.6 mph 25.3 mph N/A   Haze
7:42 PM 24.8 °F 10.3 °F 17.6 °F 74% 29.86 in 2.5 mi South 20.7 mph 25.3 mph N/A   Haze
7:56 PM 24.1 °F 9.8 °F 16.2 °F 72% 29.88 in 5.0 mi South 19.6 mph 23.0 mph N/A   Haze
8:05 PM 24.8 °F 11.5 °F 15.8 °F 69% 29.86 in 6.0 mi South 17.3 mph - N/A   Haze
8:16 PM 24.8 °F 11.9 °F 15.8 °F 69% 29.86 in 6.0 mi South 16.1 mph - N/A   Haze
8:28 PM 24.8 °F 11.1 °F 15.8 °F 69% 29.87 in 5.0 mi South 18.4 mph 27.6 mph N/A   Haze
8:36 PM 24.8 °F 11.1 °F 15.8 °F 69% 29.87 in 6.0 mi South 18.4 mph 24.2 mph N/A   Haze
8:40 PM 23.0 °F 8.3 °F 15.8 °F 74% 29.87 in 5.0 mi South 19.6 mph - N/A   Haze
8:56 PM 23.0 °F 9.6 °F 16.2 °F 75% 29.92 in 2.5 mi South 16.1 mph - 0.00 in Snow Light Snow
9:04 PM 23.0 °F 8.7 °F 15.8 °F 74% 29.88 in 2.5 mi South 18.4 mph - 0.00 in Snow Light Snow
9:19 PM 21.2 °F 8.3 °F 17.6 °F 86% 29.88 in 1.2 mi South 13.8 mph - 0.00 in Snow Light Snow
9:37 PM 21.2 °F 7.8 °F 17.6 °F 86% 29.89 in 1.0 mi South 15.0 mph - 0.00 in Snow Light Snow
9:46 PM 21.2 °F 7.3 °F 17.6 °F 86% 29.89 in 1.2 mi SSE 16.1 mph - 0.00 in Snow Light Snow
9:56 PM 21.0 °F 7.1 °F 18.1 °F 89% 29.94 in 1.2 mi South 16.1 mph - 0.00 in Snow Light Snow
10:13 PM 21.2 °F 6.8 °F 17.6 °F 86% 29.89 in 1.0 mi South 17.3 mph - 0.00 in Snow Light Snow
10:22 PM 21.2 °F 7.8 °F 17.6 °F 86% 29.89 in - South 15.0 mph - 0.00 in Snow Light Snow
10:29 PM 19.4 °F 6.0 °F 17.6 °F 93% 29.89 in - South 13.8 mph - 0.00 in Snow Light Snow
10:39 PM 19.4 °F 6.0 °F 17.6 °F 93% 29.90 in 1.2 mi South 13.8 mph - 0.00 in Snow Light Snow
10:56 PM 20.1 °F 7.5 °F 17.1 °F 88% 29.96 in 1.5 mi South 12.7 mph - 0.00 in Snow Light Snow
11:06 PM 19.4 °F 7.2 °F 17.6 °F 93% 29.90 in 2.5 mi South 11.5 mph - 0.00 in Snow Light Snow
11:40 PM 19.4 °F 6.6 °F 15.8 °F 86% 29.89 in 3.0 mi South 12.7 mph - 0.00 in   Overcast
11:45 PM 19.4 °F 6.6 °F 15.8 °F 86% 29.89 in 4.0 mi South 12.7 mph - 0.00 in   Overcast
11:56 PM 20.1 °F 7.5 °F 16.2 °F 85% 29.93 in 7.0 mi South 12.7 mph - 0.00 in   Overcast